Tracking 28790 objects as of 19-Apr-2024
HD Live streaming from Space Station
objects crossing your sky now

NOAA 16 DEB

Track NOAA 16 DEB now!
10-day predictions


NORAD ID: 41221
Int'l Code: 2000-055EA
Perigee: 739.7 km
Apogee: 813.6 km
Inclination: 99.0 °
Period: 100.2 minutes
Semi major axis: 7147 km
RCS: Unknown
Launch date: September 21, 2000
Source: United States (US)
Launch site: AIR FORCE WESTERN TEST RANGE (AFWTR)

Note: This is SATELLITE DEBRIS
Your satellite tracking list
Your tracking list is empty




NASA's NSSDC Master Catalog

Two Line Element Set (TLE):
1 41221U 00055EA  24109.44838104  .00015225  00000-0  50959-2 0  9993
2 41221  99.0490 292.1073 0051692 252.9623 106.5894 14.36676633435199
Source of the keplerian elements: AFSPC